AFL1485 UNKL-UUEE

Flight info

Callsign AFL1485
Flight time N/A
Altitude 38000
Route APRUS2F APRUS B800 ADONI R372 NH N992 KUMEP T796 AGNOK/K0763F280 M864 KERUN P164 KAMZA/K0832F380 P164 IDMOR M864 EKSER T612 KOKAD L158 DIMGI DIMGI3F
Aircraft A20N/M-SDE2E3FGHIRWXY/LB1

Departure

Time N/A
Airport Krasnoyarsk International Airport (UNKL)

Arrival

Time 2026-05-06 13:27
Airport Sheremetyevo International Airport (UUEE)
Time Latitude Longitude Altitude Speed Heading
2026-05-06 13:00 55.91899 41.25420 37824 ft 430 kts 257°
2026-05-06 13:00 55.90453 41.15103 37829 ft 429 kts 257°
2026-05-06 13:01 55.88991 41.04744 37831 ft 429 kts 257°
2026-05-06 13:01 55.87529 40.94450 37829 ft 429 kts 257°
2026-05-06 13:02 55.86063 40.84199 37543 ft 425 kts 257°
2026-05-06 13:02 55.85332 40.79114 37014 ft 419 kts 257°
2026-05-06 13:02 55.84619 40.74175 36498 ft 413 kts 257°
2026-05-06 13:02 55.83903 40.69227 35909 ft 410 kts 257°
2026-05-06 13:03 55.83226 40.64295 35270 ft 408 kts 261°
2026-05-06 13:03 55.82864 40.59350 34613 ft 406 kts 266°
2026-05-06 13:03 55.82622 40.54349 33946 ft 406 kts 267°
2026-05-06 13:03 55.82406 40.49325 33163 ft 406 kts 267°
2026-05-06 13:04 55.82198 40.44344 32353 ft 407 kts 267°
2026-05-06 13:04 55.81989 40.39297 31745 ft 407 kts 267°
2026-05-06 13:04 55.81779 40.34252 31035 ft 408 kts 267°
2026-05-06 13:04 55.81570 40.29273 30263 ft 408 kts 267°
2026-05-06 13:05 55.81359 40.24275 29483 ft 407 kts 267°
2026-05-06 13:05 55.81144 40.19252 28731 ft 404 kts 267°
2026-05-06 13:05 55.80928 40.14250 28027 ft 400 kts 266°
2026-05-06 13:05 55.80716 40.09399 27382 ft 397 kts 266°
2026-05-06 13:06 55.80502 40.04530 26707 ft 393 kts 266°
2026-05-06 13:06 55.80286 39.99654 25975 ft 392 kts 266°
2026-05-06 13:06 55.80073 39.94891 25372 ft 389 kts 266°
2026-05-06 13:06 55.79857 39.90097 24787 ft 385 kts 266°
2026-05-06 13:07 55.79641 39.85351 24214 ft 381 kts 266°
2026-05-06 13:07 55.79412 39.80719 23642 ft 378 kts 265°
2026-05-06 13:07 55.79123 39.76063 23001 ft 375 kts 264°
2026-05-06 13:07 55.78819 39.71464 22337 ft 372 kts 264°
2026-05-06 13:08 55.78518 39.66954 21700 ft 369 kts 264°
2026-05-06 13:08 55.78257 39.62411 21051 ft 365 kts 268°
2026-05-06 13:08 55.78365 39.57925 20435 ft 361 kts 278°
2026-05-06 13:08 55.78815 39.53592 19828 ft 357 kts 282°
2026-05-06 13:09 55.79381 39.49312 19212 ft 355 kts 283°
2026-05-06 13:09 55.79978 39.45114 18632 ft 351 kts 283°
2026-05-06 13:09 55.80583 39.40915 18040 ft 348 kts 283°
2026-05-06 13:09 55.81182 39.36761 17380 ft 345 kts 283°
2026-05-06 13:10 55.81778 39.32624 16740 ft 342 kts 283°
2026-05-06 13:10 55.82359 39.28583 16144 ft 338 kts 283°
2026-05-06 13:10 55.82937 39.24544 15553 ft 334 kts 283°
2026-05-06 13:10 55.83509 39.20542 14950 ft 331 kts 283°
2026-05-06 13:11 55.84069 39.16615 14375 ft 328 kts 283°
2026-05-06 13:11 55.84627 39.12690 13815 ft 324 kts 283°
2026-05-06 13:11 55.85178 39.08807 13207 ft 321 kts 283°
2026-05-06 13:11 55.85714 39.05012 12594 ft 317 kts 283°
2026-05-06 13:12 55.86252 39.01202 11935 ft 315 kts 283°
2026-05-06 13:12 55.86784 38.97429 11415 ft 310 kts 282°
2026-05-06 13:12 55.87296 38.93781 10922 ft 304 kts 282°
2026-05-06 13:12 55.87807 38.90132 10355 ft 301 kts 282°
2026-05-06 13:13 55.88306 38.86562 9975 ft 299 kts 282°
2026-05-06 13:13 55.88807 38.82968 9860 ft 300 kts 282°
2026-05-06 13:13 55.89306 38.79385 9803 ft 290 kts 282°
2026-05-06 13:13 55.89780 38.75977 9609 ft 275 kts 282°
2026-05-06 13:14 55.90229 38.72740 9348 ft 263 kts 282°
2026-05-06 13:14 55.90662 38.69604 8964 ft 257 kts 282°
2026-05-06 13:14 55.91088 38.66513 8471 ft 255 kts 282°
2026-05-06 13:14 55.91507 38.63459 7986 ft 254 kts 282°
2026-05-06 13:15 55.91924 38.60419 7513 ft 253 kts 282°
2026-05-06 13:15 55.92199 38.58411 7220 ft 251 kts 282°
2026-05-06 13:15 55.92748 38.54400 6978 ft 250 kts 283°
2026-05-06 13:15 55.93161 38.51371 6970 ft 251 kts 282°
2026-05-06 13:16 55.93571 38.48370 6973 ft 251 kts 282°
2026-05-06 13:16 55.93983 38.45342 6969 ft 251 kts 282°
2026-05-06 13:16 55.94262 38.43292 6969 ft 251 kts 282°
2026-05-06 13:16 55.94667 38.40300 6975 ft 250 kts 282°
2026-05-06 13:17 55.95074 38.37297 6969 ft 248 kts 282°
2026-05-06 13:17 55.95479 38.34296 6872 ft 247 kts 282°
2026-05-06 13:17 55.95876 38.31346 6408 ft 246 kts 282°
2026-05-06 13:17 55.96275 38.28379 5941 ft 244 kts 283°
2026-05-06 13:18 55.96673 38.25410 5365 ft 247 kts 283°
2026-05-06 13:18 55.97074 38.22426 5040 ft 246 kts 283°
2026-05-06 13:18 55.97467 38.19480 4978 ft 247 kts 283°
2026-05-06 13:18 55.97865 38.16496 4968 ft 249 kts 283°
2026-05-06 13:19 55.98268 38.13468 4917 ft 249 kts 283°
2026-05-06 13:19 55.98665 38.10489 4504 ft 247 kts 283°
2026-05-06 13:19 55.99063 38.07491 4101 ft 248 kts 283°
2026-05-06 13:19 55.99465 38.04447 3986 ft 252 kts 283°
2026-05-06 13:20 55.99860 38.01457 3974 ft 248 kts 283°
2026-05-06 13:20 56.00256 37.98455 3979 ft 248 kts 282°
2026-05-06 13:20 56.00611 37.95430 3976 ft 246 kts 281°
2026-05-06 13:20 56.00926 37.92521 3961 ft 227 kts 281°
2026-05-06 13:21 56.01205 37.89887 3954 ft 209 kts 281°
2026-05-06 13:21 56.01465 37.87423 4005 ft 191 kts 280°
2026-05-06 13:21 56.01700 37.85180 3990 ft 183 kts 280°
2026-05-06 13:21 56.01935 37.82935 3818 ft 188 kts 279°
2026-05-06 13:22 56.02182 37.80576 3296 ft 194 kts 281°
2026-05-06 13:22 56.02404 37.78184 3027 ft 198 kts 275°
2026-05-06 13:22 56.02321 37.75737 2820 ft 199 kts 261°
2026-05-06 13:22 56.01996 37.73363 2529 ft 195 kts 257°
2026-05-06 13:23 56.01626 37.71063 2482 ft 194 kts 256°
2026-05-06 13:23 56.01248 37.68723 2485 ft 195 kts 255°
2026-05-06 13:23 56.00887 37.66518 2481 ft 170 kts 256°
2026-05-06 13:23 56.00590 37.64658 2471 ft 145 kts 256°
2026-05-06 13:24 56.00362 37.63019 2448 ft 129 kts 258°
2026-05-06 13:24 56.00133 37.61475 2466 ft 128 kts 257°
2026-05-06 13:24 55.99901 37.59926 2431 ft 128 kts 258°
2026-05-06 13:24 55.99679 37.58410 2274 ft 128 kts 258°
2026-05-06 13:25 55.99451 37.56875 2092 ft 127 kts 259°
2026-05-06 13:25 55.99224 37.55341 1890 ft 128 kts 254°
2026-05-06 13:25 55.98993 37.53811 1754 ft 129 kts 256°
2026-05-06 13:25 55.98759 37.52261 1575 ft 128 kts 258°
2026-05-06 13:26 55.98530 37.50726 1416 ft 127 kts 256°
2026-05-06 13:26 55.98305 37.49232 1271 ft 126 kts 260°
2026-05-06 13:26 55.98066 37.47712 1096 ft 123 kts 248°
2026-05-06 13:26 55.97853 37.46212 872 ft 124 kts 258°
2026-05-06 13:27 55.97615 37.44696 696 ft 129 kts 257°
2026-05-06 13:27 55.97398 37.43258 648 ft 99 kts 256°
2026-05-06 13:27 55.97276 37.42379 642 ft 47 kts 255°
2026-05-06 13:27 55.97205 37.41897 643 ft 38 kts 255°
2026-05-06 13:28 55.97147 37.41520 646 ft 17 kts 255°
2026-05-06 13:28 55.97140 37.41379 643 ft 4 kts 304°
2026-05-06 13:28 55.97158 37.41356 643 ft 4 kts 331°
2026-05-06 13:28 55.97203 37.41328 642 ft 10 kts 344°
2026-05-06 13:29 55.97242 37.41309 642 ft 0 kts 345°
2026-05-06 13:29 55.97248 37.41306 642 ft 0 kts 345°
2026-05-06 13:30 55.97273 37.41295 642 ft 6 kts 345°
2026-05-06 13:30 55.97313 37.41276 643 ft 8 kts 345°
2026-05-06 13:30 55.97388 37.41241 643 ft 13 kts 345°
2026-05-06 13:31 55.97479 37.41198 642 ft 14 kts 344°
2026-05-06 13:31 55.97576 37.41149 642 ft 15 kts 345°
2026-05-06 13:31 55.97624 37.41179 642 ft 6 kts 69°
2026-05-06 13:31 55.97628 37.41211 642 ft 0 kts 75°
2026-05-06 13:32 55.97632 37.41238 642 ft 9 kts 74°
2026-05-06 13:32 55.97656 37.41386 642 ft 13 kts 75°
2026-05-06 13:33 55.97679 37.41548 644 ft 14 kts 76°
2026-05-06 13:33 55.97704 37.41720 642 ft 15 kts 73°
2026-05-06 13:33 55.97731 37.41894 642 ft 13 kts 73°
2026-05-06 13:33 55.97735 37.41919 644 ft 1 kts 73°
2026-05-06 13:34 55.97753 37.42040 643 ft 13 kts 68°
2026-05-06 13:34 55.97795 37.42086 644 ft 7 kts 356°
2026-05-06 13:34 55.97847 37.42062 642 ft 14 kts 346°
2026-05-06 13:34 55.97931 37.42009 642 ft 8 kts 315°
2026-05-06 13:35 55.97932 37.41964 642 ft 7 kts 252°
2026-05-06 13:35 55.97921 37.41893 642 ft 0 kts 255°